Weather History for Greenville, AL

Change the Weather History Date:

Wednesday, September 4, 2013

  Actual Average Record
Temperature  
Mean Temperature 80 °F -  
Max Temperature 91 °F 89 °F 103 °F (1951)
Min Temperature 69 °F 67 °F 58 °F (1952)
Cooling Degree Days 15    
Growing Degree Days 30 (Base 50)    
Moisture  
Dew Point 71 °F    
Average Humidity 82    
Maximum Humidity 100    
Minimum Humidity 53    
Precipitation  
Precipitation 0.06 in - - ()
Sea Level Pressure  
Sea Level Pressure 30.03 in    
Wind  
Wind Speed 2 mph (South)    
Max Wind Speed 8 mph    
Max Gust Speed -    
Visibility 7 miles    
Events Fog    
Averages and records for this station are not official NWS values.
T = Trace of Precipitation, MM = Missing Value Source: NWS Daily Summary

Daily Weather History Graph

Daily Weather History Graph

Search for Another Location

Airport:

Trip Planner

Search our weather history database for the weather conditions in past years. The results will help you decide how hot, cold, wet, or windy it might be!

Date:

Astronomy

Sep. 04, 2013 Rise Set
Actual Time 6:23 AM CDT 7:06 PM CDT
Civil Twilight 5:59 AM CDT 7:30 PM CDT
Nautical Twilight 5:30 AM CDT 8:00 PM CDT
Astronomical Twilight 5:00 AM CDT 8:29 PM CDT
Moon 5:35 AM CDT (9/4) 6:27 PM CDT (9/4)
Length of Visible Light 13h 31m
Length of Day
12h 42m
Waning Crescent, 1% of the Moon is Illuminated
Sep 4
Waning Crescent
Sep 5
New
Sep 12
First Quarter
Sep 19
Full
Sep 26
Last Quarter

Hourly Weather History & Observations

Time (CDT) Temp. Heat Index Dew Point Humidity Pressure Visibility Wind Dir Wind Speed Gust Speed Precip Events Conditions
12:56 AM 72.0 °F - 70.0 °F 93% 29.97 in 6.0 mi SE 3.5 mph - N/A   Clear
1:56 AM 72.0 °F - 70.0 °F 93% 29.97 in 6.0 mi Calm Calm - N/A   Clear
2:56 AM 71.1 °F - 70.0 °F 96% 29.97 in 5.0 mi Calm Calm - N/A   Clear
3:56 AM 71.1 °F - 68.0 °F 90% 29.98 in 7.0 mi Calm Calm - N/A   Clear
4:18 AM 69.8 °F - 68.0 °F 94% 29.99 in 4.0 mi Calm Calm - N/A   Scattered Clouds
4:23 AM 69.8 °F - 69.8 °F 100% 29.99 in 1.8 mi Calm Calm - N/A   Mostly Cloudy
4:56 AM 70.0 °F - 69.1 °F 97% 29.99 in 0.2 mi Calm Calm - N/A Fog Fog
5:56 AM 70.0 °F - 69.1 °F 97% 30.00 in 0.2 mi Calm Calm - N/A Fog Fog
6:56 AM 70.0 °F - 68.0 °F 93% 30.02 in 1.0 mi Calm Calm - 0.01 in   Mist
7:25 AM 69.8 °F - 69.8 °F 100% 30.04 in 2.5 mi Calm Calm - N/A   Mostly Cloudy
7:37 AM 71.6 °F - 69.8 °F 94% 30.04 in 3.0 mi Calm Calm - N/A   Mostly Cloudy
7:56 AM 71.1 °F - 70.0 °F 96% 30.04 in 3.0 mi Calm Calm - N/A   Mostly Cloudy
8:10 AM 71.6 °F - 69.8 °F 94% 30.06 in 2.5 mi South 3.5 mph - N/A   Overcast
8:19 AM 71.6 °F - 71.6 °F 100% 30.06 in 5.0 mi Variable 3.5 mph - N/A   Overcast
8:44 AM 73.4 °F - 71.6 °F 94% 30.07 in 10.0 mi SSW 3.5 mph - N/A   Scattered Clouds
8:56 AM 75.0 °F - 71.1 °F 87% 30.06 in 10.0 mi South 3.5 mph - N/A   Partly Cloudy
9:56 AM 82.0 °F 86.3 °F 71.1 °F 69% 30.07 in 10.0 mi Calm Calm - N/A   Clear
10:56 AM 84.9 °F 90.1 °F 71.1 °F 63% 30.07 in 10.0 mi Calm Calm - N/A   Clear
11:56 AM 87.1 °F 93.6 °F 72.0 °F 61% 30.06 in 10.0 mi Calm Calm - N/A   Clear
12:56 PM 87.1 °F 94.5 °F 73.0 °F 63% 30.05 in 10.0 mi Calm Calm - N/A   Overcast
1:56 PM 91.0 °F 98.2 °F 72.0 °F 53% 30.04 in 10.0 mi SSW 4.6 mph - N/A   Scattered Clouds
2:56 PM 89.1 °F 96.0 °F 72.0 °F 57% 30.01 in 10.0 mi NE 3.5 mph - 0.05 in   Partly Cloudy
3:56 PM 91.0 °F 99.3 °F 73.0 °F 55% 30.00 in 10.0 mi NE 6.9 mph - N/A   Partly Cloudy
4:56 PM 90.0 °F 96.4 °F 71.1 °F 54% 29.99 in 10.0 mi NE 3.5 mph - N/A   Clear
5:56 PM 88.0 °F 94.7 °F 72.0 °F 59% 30.01 in 10.0 mi Calm Calm - N/A   Overcast
6:56 PM 86.0 °F 92.2 °F 72.0 °F 63% 30.02 in 10.0 mi North 3.5 mph - N/A   Clear
7:56 PM 81.0 °F 86.2 °F 73.9 °F 79% 30.05 in 10.0 mi SSW 5.8 mph - N/A   Mostly Cloudy
8:56 PM 79.0 °F - 72.0 °F 79% 30.07 in 10.0 mi SW 8.1 mph - N/A   Scattered Clouds
9:56 PM 75.9 °F - 71.1 °F 85% 30.08 in 10.0 mi SSW 4.6 mph - N/A   Clear
10:56 PM 75.9 °F - 71.1 °F 85% 30.08 in 10.0 mi Calm Calm - N/A   Clear
11:56 PM 73.9 °F - 72.0 °F 93% 30.07 in 10.0 mi Calm Calm - N/A   Overcast